Regional Weather Roundup
Issued by NWS

Home | Current Version | Previous Version | Text Only | Print | Product List | Glossary Off
Versions: 1 2 3 4 5 6 7 8 9 10 11 12 13 14 15 16 17 18 19 20 21 22 23 24 25 26 27 28 29 30 31 32 33 34 35 36 37 38 39 40 41 42 43 44 45 46 47 48 49

000
ASUS43 KDMX 171207
RWRIA

WEATHER ROUNDUP FOR IOWA
NATIONAL WEATHER SERVICE DES MOINES IA
600 AM CST WED DEC 17 2014

NOTE: "FAIR" INDICATES FEW OR NO CLOUDS BELOW 12,000 FEET WITH NO
SIGNIFICANT WEATHER AND/OR OBSTRUCTIONS TO VISIBILITY.

* - THESE STATIONS ARE NOT NWS STATIONS...THUS NOT UNDER NWS
QUALITY CONTROL.  THEY ALSO DO NOT REPORT WEATHER SUCH
AS PRECIPITATION OR FOG.

IAZ001>003-012>014-020>022-031>034-043>046-171300-
   NORTHWEST IOWA

CITY           SKY/WX    TMP DP  RH WIND       PRES   REMARKS
CARROLL *      CLEAR     10   7  85 NW6       30.33F WCI   1
CHEROKEE *     PTCLDY    10   8  92 CALM      30.33S
DENISON *      PTCLDY    12   9  85 CALM      30.32S
LE MARS *      CLEAR      9   7  92 CALM      30.34S
ORANGE CITY *  CLEAR     10   9  92 N3        30.31S
SHELDON *      CLEAR      7   3  85 NW6       30.31S WCI  -3
SIOUX CITY     PTCLDY    10   6  84 NW6       30.36S WCI   0
6HR MIN TEMP:  10; 6HR MAX TEMP:  15;

SPENCER        MOCLDY     9   4  80 NW6       30.31F WCI  -1
6HR MIN TEMP:   9; 6HR MAX TEMP:  12;

STORM LAKE *   CLEAR      9   5  85 NW5       30.31S WCI   0
$$

IAZ055>058-069>071-079>083-090>094-171300-
   SOUTHWEST IOWA

CITY           SKY/WX    TMP DP  RH WIND       PRES   REMARKS
ATLANTIC *     CLEAR     14  10  85 CALM      30.35R
AUDUBON *      CLEAR     12   7  79 N3        30.32S
CLARINDA *     CLOUDY    19  16  86 N8        30.37R WCI   9
COUNCIL BLFS * CLEAR     16  14  93 N5        30.33S WCI   9
CRESTON *      PTCLDY    14  12  92 N6G12     30.34R WCI   5
HARLAN  *      CLEAR     14  14 100 CALM      30.37F
LAMONI         PTCLDY    17  12  80 N9        30.33R WCI   6
6HR MIN TEMP:  17; 6HR MAX TEMP:  20;

RED OAK *      CLOUDY    18  14  86 N8        30.35F WCI   7
SHENANDOAH *   CLOUDY    19  14  79 N7        30.37R WCI  10
$$

IAZ047>049-059>061-072>074-084-171300-
   CENTRAL IOWA

CITY           SKY/WX    TMP DP  RH WIND       PRES   REMARKS
AMES           CLEAR     13   9  84 NW7       30.33F WCI   3
6HR MIN TEMP:  13; 6HR MAX TEMP:  18;

ANKENY *       CLEAR     14  10  85 NW8       30.34S WCI   3
CHARITON *     CLOUDY    18  12  79 N7G14     30.32F WCI   8
DES MOINES     CLEAR     15   9  76 N8        30.34S WCI   4
6HR MIN TEMP:  15; 6HR MAX TEMP:  19; 6HR PCP: TRACE;

GRINNELL*      CLEAR     14  12  92 W7        30.32R WCI   4
KNOXVILLE *    CLOUDY    19  12  73 NW10      30.32R WCI   8
MARSHALLTOWN   CLEAR     13  10  88 NW8       30.31S WCI   2
6HR MIN TEMP:  13; 6HR MAX TEMP:  18;

PELLA *        CLOUDY    19  14  82 NW8       30.34S WCI   8
PERRY *          N/A     12  10  92 NW5       30.35R WCI   4
$$

IAZ004>006-015-016-023>025-035-036-171300-
   NORTH CENTRAL IOWA

CITY           SKY/WX    TMP DP  RH WIND       PRES   REMARKS
ALGONA *       CLEAR     12   9  85 NW9       30.31S WCI   0
CLARION *      CLEAR     12  10  92 W6        30.31S WCI   3
ESTHERVILLE    CLEAR      9   6  88 NW7       30.30S WCI  -2
6HR MIN TEMP:   9; 6HR MAX TEMP:  11;

FORT DODGE *   PTCLDY    10   7  85 W5        30.32S WCI   2
MASON CITY     PTCLDY    10   7  87 NW12      30.31R WCI  -5
6HR MIN TEMP:  10; 6HR MAX TEMP:  15;

FOREST CITY *  CLEAR     12   9  85 NW8       30.29S WCI   1
IOWA FALLS *     N/A     13  10  87 W7        30.31S WCI   3
$$

IAZ007>011-017>019-026>030-037>042-050>054-066-171300-
   NORTHEAST IOWA

CITY           SKY/WX    TMP DP  RH WIND       PRES   REMARKS
CEDAR RAPIDS   CLOUDY    18  15  88 W14       30.30R WCI   4
6HR MIN TEMP:  18; 6HR MAX TEMP:  20;

CHARLES CITY * CLOUDY    12   9  85 NW10      30.29R WCI  -1
CLINTON *      CLOUDY    23  16  74 W13       30.29S WCI  11
DECORAH *      CLOUDY    18  14  86 W10       30.25R WCI   6
DUBUQUE        CLOUDY    20  16  84 W14       30.25R WCI   7
6HR MIN TEMP:  20; 6HR MAX TEMP:  22;

MONTICELLO *   CLOUDY    21  18  86 NW12      30.29R WCI   9
OELWEIN *      CLOUDY    16  12  86 W10       30.29R WCI   3
WATERLOO       PTCLDY    13  10  88 W8        30.31R WCI   2
6HR MIN TEMP:  13; 6HR MAX TEMP:  19;

$$

IAZ064-065-067-068-078-171300-
   EAST CENTRAL IOWA

CITY           SKY/WX    TMP DP  RH WIND       PRES   REMARKS
DAVENPORT      CLOUDY    22  15  75 W14       30.29R WCI   9
6HR MIN TEMP:  21; 6HR MAX TEMP:  22;

IOWA CITY      CLOUDY    20  15  81 NW12      30.33R WCI   8
6HR MIN TEMP:  19; 6HR MAX TEMP:  21;

MT. PLEASANT * CLOUDY    18  14  82 NW7       30.34R WCI   9
MUSCATINE *    CLOUDY    21  16  79 W7        30.33S WCI  13
QUAD CITIES    CLOUDY    22  15  75 W9        30.30R WCI  12
6HR MIN TEMP:  21; 6HR MAX TEMP:  22;

$$

IAZ062-063-075>077-085>089-095>099-171300-
   SOUTHEAST IOWA

CITY           SKY/WX    TMP DP  RH WIND       PRES   REMARKS
BURLINGTON     CLOUDY    19  14  81 NW9       30.33R WCI   8
6HR MIN TEMP:  19; 6HR MAX TEMP:  23;

FAIRFIELD *    CLOUDY    19  12  73 W7        30.33S WCI  10
FORT MADISON * CLOUDY    19  16  86 NW10      30.34R WCI   8
KEOKUK *       CLOUDY    19  14  79 N9        30.33S WCI   9
OSKALOOSA *    CLOUDY    18  14  86 NW10      30.34S WCI   6
CENTERVILLE *  CLOUDY    19  16  86 NW7       30.33S WCI  10
OTTUMWA        CLOUDY    18  12  77 NW6       30.33R WCI  10
6HR MIN TEMP:  16; 6HR MAX TEMP:  19;

WASHINGTON *   CLOUDY    21  18  86 NW9       30.33R WCI  11
$$

ABBREVIATIONS USED IN REMARKS
   TC - TEMPERATURES IN CELSIUS
  WCI - WIND CHILL INDEX
   HX - HEAT INDEX
  VSB - VISIBILITY
$$




USA.gov is the U.S. government's official web portal to all federal, state and local government web resources and services.